DW6386 Weather Reports


time (UTC)temp
F
wind
direction
speed
knots
gust
knots
rain 1hr
in
rain 24hr
in
rain mn
in
humidity
%
barometer
mb
20260906051523 73 107 0.0 0.0 0.00 0.49 0.00 98 1010.7
20260906050013 73 106 0.0 0.0 0.00 0.49 0.00 98 1010.7
20260906044512 73 106 0.0 0.0 0.00 0.49 0.00 98 1010.9
20260906043009 73 106 0.0 0.9 0.00 0.49 0.00 98 1011.1
20260906041508 73 106 0.0 0.0 0.00 0.49 0.00 98 1011.1
20260906040019 73 105 0.0 0.0 0.00 0.49 0.49 98 1011.2
20260906034505 72 170 0.0 0.0 0.00 0.49 0.49 98 1011.1
20260906033005 73 170 0.0 0.0 0.00 0.49 0.49 98 1011.0
20260906031507 73 170 0.0 0.0 0.00 0.49 0.49 98 1011.0
20260906030005 73 170 0.0 0.0 0.00 0.49 0.49 98 1011.1
20260906024503 73 170 0.0 0.0 0.00 0.49 0.49 97 1010.7
20260906023004 73 170 0.0 0.0 0.00 0.49 0.49 97 1010.7
20260906021503 74 170 0.0 0.0 0.00 0.49 0.49 97 1010.4
20260906020003 74 170 0.0 0.0 0.00 0.49 0.49 97 1010.5
20260906014502 74 170 0.0 0.0 0.00 0.49 0.49 96 1010.3
20260906013001 74 184 0.0 0.0 0.00 0.49 0.49 96 1010.2
20260906011501 75 184 0.0 0.0 0.00 0.49 0.49 96 1010.1
20260906010001 75 184 0.0 0.0 0.00 0.49 0.49 95 1010.2
20260906004603 75 184 0.0 0.0 0.00 0.49 0.49 94 1010.2
20260906003059 76 184 0.0 0.0 0.00 0.49 0.49 93 1010.2
20260906001559 77 186 0.0 0.0 0.00 0.49 0.49 93 1010.2
20260906000108 77 186 0.0 0.0 0.00 0.49 0.49 91 1010.3
20260905234619 79 200 0.0 0.0 0.00 0.49 0.49 90 1010.2
20260905233058 79 200 0.0 0.0 0.00 0.49 0.49 89 1010.2
20260905231604 79 200 0.0 0.0 0.00 0.49 0.49 89 1010.0
20260905224556 79 179 0.0 0.0 0.00 0.49 0.49 88 1009.9
20260905223057 78 179 0.0 0.0 0.00 0.49 0.49 88 1009.8
20260905221556 79 155 0.0 0.0 0.00 0.49 0.49 89 1009.9
20260905214553 78 145 0.0 0.0 0.00 0.49 0.49 89 1010.1
20260905213051 78 144 0.0 0.9 0.00 0.49 0.49 90 1010.1
20260905211549 77 295 0.0 1.7 0.00 0.49 0.49 93 1010.4
20260905210057 76 176 0.0 0.0 0.00 0.49 0.49 94 1010.7
20260905204552 76 281 0.0 3.5 0.00 0.49 0.49 94 1010.7
20260905203101 76 130 0.0 0.0 0.00 0.49 0.49 95 1010.6
20260905201543 76 130 0.0 0.9 0.00 0.49 0.49 95 1010.8
20260905200043 76 146 0.0 0.0 0.00 0.49 0.49 95 1010.9
20260905194538 75 146 0.0 0.9 0.00 0.49 0.49 95 1011.3
20260905191510 74 143 0.0 1.7 0.00 0.49 0.49 95 1011.0
20260905190009 74 95 0.0 7.8 0.00 0.49 0.49 94 1012.0
20260905184512 74 92 0.9 7.0 0.49 0.49 0.49 93 1012.4
20260905183008 75 48 0.0 2.6 0.49 0.49 0.49 93 1011.9
20260905181506 76 150 0.0 0.9 0.49 0.49 0.49 89 1012.2
20260905180003 79 187 0.0 7.8 0.49 0.49 0.49 80 1012.3
20260905174508 90 163 0.0 2.6 0.00 0.00 0.00 71 1011.8
20260905173000 90 278 0.9 3.5 0.00 0.00 0.00 70 1011.2
20260905171634 90 60 0.0 0.0 0.00 0.00 0.00 69 1011.4
20260905170105 93 81 0.0 0.0 0.00 0.00 0.00 62 1011.6
20260905164556 92 292 0.0 1.7 0.00 0.00 0.00 65 1011.9
20260905163055 90 18 0.0 3.5 0.00 0.00 0.00 71 1012.2
20260905161547 89 43 0.0 1.7 0.00 0.00 0.00 71 1012.2
20260905160044 87 91 0.0 1.7 0.00 0.00 0.00 77 1012.2
20260905154554 86 231 0.0 0.9 0.00 0.00 0.00 77 1012.3
20260905153039 85 200 0.0 0.0 0.00 0.00 0.00 78 1012.4
20260905151536 84 198 0.0 0.0 0.00 0.00 0.00 77 1012.5
20260905150041 83 198 0.0 0.0 0.00 0.00 0.00 80 1012.6
20260905144535 82 203 0.0 0.0 0.00 0.00 0.00 84 1012.7
20260905143028 81 207 0.0 0.9 0.00 0.00 0.00 85 1012.8
20260905141525 81 207 0.0 0.0 0.00 0.00 0.00 88 1012.8
20260905140022 80 196 0.0 0.0 0.00 0.00 0.00 91 1012.7
20260905134522 78 196 0.0 0.0 0.00 0.00 0.00 95 1012.7
20260905133015 77 198 0.0 0.0 0.00 0.00 0.00 96 1013.0
20260905131529 76 113 0.0 0.0 0.00 0.00 0.00 97 1013.1
20260905130011 75 113 0.0 0.0 0.00 0.00 0.00 98 1013.1
20260905124511 75 113 0.0 0.0 0.00 0.00 0.00 98 1013.2
20260905123009 74 113 0.0 0.0 0.00 0.00 0.00 98 1013.1
20260905121508 73 113 0.0 0.0 0.00 0.00 0.00 98 1012.9
20260905120019 72 113 0.0 0.0 0.00 0.00 0.00 98 1012.8
20260905114513 72 113 0.0 0.0 0.00 0.00 0.00 98 1012.7
20260905113003 71 113 0.0 0.0 0.00 0.00 0.00 98 1012.5
20260905111501 72 113 0.0 0.0 0.00 0.00 0.00 97 1012.2
20260905110001 72 113 0.0 0.0 0.00 0.00 0.00 98 1012.1
20260905104619 72 113 0.0 0.0 0.00 0.00 0.00 98 1012.1
20260905103100 72 113 0.0 0.0 0.00 0.00 0.00 97 1012.0
20260905101558 72 113 0.0 0.0 0.00 0.00 0.00 97 1011.8
20260905100058 72 113 0.0 0.0 0.00 0.00 0.00 97 1011.7
20260905094715 72 113 0.0 0.0 0.00 0.00 0.00 97 1011.6
20260905093108 72 113 0.0 0.0 0.00 0.00 0.00 97 1011.4
20260905091600 73 113 0.0 0.0 0.00 0.00 0.00 97 1011.3
20260905090052 73 113 0.0 0.0 0.00 0.00 0.00 96 1011.4
20260905084602 73 113 0.0 0.0 0.00 0.00 0.00 97 1011.6
20260905083050 73 113 0.0 0.0 0.00 0.00 0.00 97 1011.7
20260905081549 73 113 0.0 0.0 0.00 0.00 0.00 96 1011.7
20260905074558 73 113 0.0 0.0 0.00 0.00 0.00 95 1011.8
20260905073052 73 113 0.0 0.0 0.00 0.00 0.00 96 1011.9
20260905071549 73 113 0.0 0.0 0.00 0.00 0.00 96 1011.9
20260905070044 73 113 0.0 0.0 0.00 0.00 0.00 95 1011.9
20260905064543 73 113 0.0 0.0 0.00 0.00 0.00 95 1012.0
20260905063042 74 113 0.0 0.0 0.00 0.00 0.00 94 1012.1
20260905061555 74 113 0.0 0.0 0.00 0.00 0.00 94 1012.0
20260905060058 74 113 0.0 0.0 0.00 0.00 0.00 93 1012.0
20260905054552 74 113 0.0 0.0 0.00 0.00 0.00 93 1012.1
20260905053036 75 113 0.0 0.0 0.00 0.00 0.00 93 1012.2